sat.trackr.live / text

‹ back to catalog

STARLINK-34882

NORAD 66227 · 2025-244X

PAYLOAD ACTIVE UNKNOWN

§ Identity

Operator
Country
US
Launch date
2025-10-28
Launch site
AFWTR
Launch vehicle
Mass (kg)
RCS (m²)

Purposes: comms

External: N2YO · Heavens-Above · Gunter

§ Orbital elements

Epoch: 2026-09-19T23:26:01.919040Z

Period
93.84 min
Inclination
53.1604°
Eccentricity
0.0001326
Mean motion
15.34448904 rev/d
Perigee alt
461.7 km
Apogee alt
463.5 km
Semi-major
6,840.7 km
B*
7.4877e-4
RAAN
44.0673°
Arg perigee
50.2569°
Mean anomaly
309.8551°
Rev number
5,145

§ Raw data

STARLINK-348821 66227U 25244X   26262.97641110  .00025046  00000+0  74877-3 0  99992 66227  53.1604  44.0673 0001326  50.2569 309.8551 15.34448904 51455

JSON: /api/v1/satellites/66227 · /tle

For live sub-satellite position, see the globe view (requires WebGL).

§ Visibility from observer

Set your observer location to see the next 7 days of passes ≥ 10°. The values pass through the URL so the page stays shareable.

No JS? Fill the form by hand. The geolocation button needs JavaScript.